Ask Your Question

vooon's profile - karma

vooon's karma change log

10 0 Increase output frequency of pixhawk using mavros ( 2018-06-28 09:34:07 -0500 )

15 0 MAVROS interaction with a gimbal (Pixhawk) ( 2018-06-25 11:50:32 -0500 )

15 0 Mavros and Unsupported FCU on Intel AERO RTF ( 2018-06-15 17:20:34 -0500 )

15 0 How to control pitch, roll, yaw with mavros ( 2018-01-11 20:19:21 -0500 )

15 0 Mavros multi-vehicle simulation ( 2017-04-30 02:57:37 -0500 )

15 0 Configure frame IDs for mavros local_position/odom ( 2017-02-14 17:32:42 -0500 )

15 0 What are the configurations I need to set for mavros_extras distance_sensor plugin? ( 2017-01-31 12:47:59 -0500 )

15 0 Package to detect interrupted connection? ( 2016-11-12 17:04:33 -0500 )

15 0 Trouble with using roscpp and mavros api to integrate pixhawk with Jetson ( 2016-05-08 16:09:08 -0500 )

2 0 How to check that message exists with catkin for conditional compilation (sensor_msgs/BatteryState) ( 2016-01-10 23:46:27 -0500 )

15 0 mavros global_position topic not publishing ( 2016-01-05 01:20:39 -0500 )

15 0 Pusblishing to topic problem (Mavros) ( 2015-12-24 19:48:01 -0500 )

10 0 Several errors when using mavros. ( 2015-11-04 08:01:27 -0500 )

15 0 Several errors when using mavros. ( 2015-11-04 08:01:24 -0500 )

10 0 ros run mavros with permission denied. ( 2015-11-03 00:05:10 -0500 )

0 -15 ros run mavros with permission denied. ( 2015-11-02 23:58:12 -0500 )

15 0 ros run mavros with permission denied. ( 2015-11-02 23:44:59 -0500 )

0 -15 catkin_make package that uses mavros_msgs ( 2015-10-21 04:27:47 -0500 )

15 0 catkin_make package that uses mavros_msgs ( 2015-10-21 04:27:43 -0500 )

0 -15 catkin_make package that uses mavros_msgs ( 2015-10-21 04:27:40 -0500 )

10 0 catkin_make package that uses mavros_msgs ( 2015-10-21 04:27:31 -0500 )

15 0 catkin_make package that uses mavros_msgs ( 2015-10-21 04:27:25 -0500 )

0 -15 catkin_make package that uses mavros_msgs ( 2015-10-21 04:27:25 -0500 )

15 0 catkin_make package that uses mavros_msgs ( 2015-10-21 04:27:25 -0500 )

10 0 How to control pitch, roll, yaw with mavros ( 2015-10-18 23:18:42 -0500 )

10 0 Not all topics publishing data ( 2015-09-25 10:06:05 -0500 )

15 0 Not all topics publishing data ( 2015-09-25 10:06:02 -0500 )

0 -10 Not all topics publishing data ( 2015-09-25 10:05:59 -0500 )

10 0 Not all topics publishing data ( 2015-09-25 10:05:56 -0500 )

10 0 MAVROS interaction with a gimbal (Pixhawk) ( 2015-09-23 14:41:46 -0500 )

10 0 PX4 RC override doesn't work ( 2015-06-30 04:50:07 -0500 )

10 0 What is the best way to connect an APM controller to ROS? ( 2015-04-20 13:54:07 -0500 )

15 0 mavros in general ( 2015-04-05 15:46:50 -0500 )

10 0 What is the best way to connect an APM controller to ROS? ( 2015-04-05 07:31:38 -0500 )

15 0 mavros with serial connection ( 2015-03-22 03:45:34 -0500 )

10 0 Trouble with using roscpp and mavros api to integrate pixhawk with Jetson ( 2015-02-11 20:37:17 -0500 )

10 0 mavros with serial connection ( 2015-02-09 01:55:44 -0500 )

15 0 Mavros not arming quadcopter? ( 2015-01-12 20:32:12 -0500 )

10 0 Is there a standard message type for waypoint in 3D space? ( 2014-11-11 20:03:48 -0500 )

10 0 Versioning third party package by snapshot date ( 2014-09-03 18:55:34 -0500 )

2 0 Versioning third party package by snapshot date ( 2014-09-03 17:03:46 -0500 )

2 0 Should i create stack for package with extras? ( 2014-08-11 16:16:04 -0500 )

10 0 Jenkins fail on installing ros-indigo-ros ( 2014-07-06 23:00:16 -0500 )

2 0 It is possible to get deb from jenkins before debian repo sync? ( 2014-06-20 01:32:22 -0500 )

10 0 What is the best way to connect an APM controller to ROS? ( 2014-06-03 11:52:25 -0500 )